Location: Morisset
(33.1080°S, 151.4871°E)
Time: 09:07:15
(UTC+00:00)

ADEOS - Pass Details

Date: 29 October 2020
Orbit: 793 x 794 km, 98.9° (Epoch: 27 November)

Event Time Altitude Azimuth Distance (km) Brightness Sun altitude
Rises 18:03:30 0° 360° (N) 3,280 6.5 -11.2°
Reaches altitude 10° 18:05:53 10° 354° (N) 2,359 5.7 -10.8°
Maximum altitude 18:10:54 47° 280° (W) 1,049 3.8 -9.8°
Drops below altitude 10° 18:15:59 10° 206° (SSW) 2,388 6.0 -8.9°
Sets 18:18:25 0° 200° (SSW) 3,325 6.8 -8.4°
